DW1057 Weather Reports


time (UTC)temp
F
wind
direction
speed
knots
gust
knots
rain 1hr
in
rain 24hr
in
rain mn
in
humidity
%
barometer
mb
20260504041544 54 193 0.9 3.5 0.00 0.00 0.00 58 1016.6
20260504040045 55 227 0.0 3.5 0.00 0.00 0.00 57 1016.7
20260504034542 55 219 0.0 4.3 0.00 0.00 0.00 57 1016.7
20260504033049 55 189 0.0 4.3 0.00 0.00 0.00 56 1016.6
20260504031541 55 243 0.0 3.5 0.00 0.00 0.00 54 1016.7
20260504030039 55 145 0.0 1.7 0.00 0.00 0.00 54 1016.7
20260504024553 55 146 0.0 1.7 0.00 0.00 0.00 52 1016.6
20260504023038 56 143 0.0 1.7 0.00 0.00 0.00 50 1016.3
20260504021547 57 218 0.0 1.7 0.00 0.00 0.00 50 1016.3
20260504020041 57 153 0.0 1.7 0.00 0.00 0.00 47 1016.2
20260504014537 57 134 0.9 1.7 0.00 0.00 0.00 47 1016.3
20260504013044 57 132 0.0 2.6 0.00 0.00 0.00 47 1016.1
20260504011537 58 76 0.0 1.7 0.00 0.00 0.00 47 1016.1
20260504010035 59 143 0.0 1.7 0.00 0.00 0.00 44 1015.9
20260504004543 60 161 0.0 1.7 0.00 0.00 0.00 42 1015.9
20260504003033 61 145 0.0 1.7 0.00 0.00 0.00 39 1015.8
20260504001533 63 226 0.9 1.7 0.00 0.00 0.00 35 1015.8
20260504000032 63 136 0.0 2.6 0.00 0.00 0.00 38 1015.8
20260503234532 64 191 0.0 2.6 0.00 0.00 0.00 34 1015.9
20260503233033 64 68 0.0 2.6 0.00 0.00 0.00 35 1015.9
20260503231529 65 48 0.0 3.5 0.00 0.00 0.00 39 1016.0
20260503230028 65 61 0.0 2.6 0.00 0.00 0.00 40 1016.0
20260503224528 66 60 0.0 3.5 0.00 0.00 0.00 37 1016.1
20260503223027 65 26 0.0 5.2 0.00 0.00 0.00 42 1016.1
20260503221526 66 218 0.0 5.2 0.00 0.00 0.00 43 1016.2
20260503220027 66 238 0.9 3.5 0.00 0.00 0.00 41 1016.3
20260503214524 66 249 0.0 3.5 0.00 0.00 0.00 43 1016.3
20260503213026 67 116 0.0 2.6 0.00 0.00 0.00 41 1016.5
20260503211534 65 43 0.9 3.5 0.00 0.00 0.00 46 1016.6
20260503210021 64 251 0.9 5.2 0.00 0.00 0.00 49 1016.8
20260503204521 66 171 0.0 3.5 0.00 0.00 0.00 42 1017.0
20260503203021 64 105 1.7 7.8 0.00 0.00 0.00 47 1017.2
20260503201518 64 228 0.0 3.5 0.00 0.00 0.00 44 1017.4
20260503200017 64 349 0.0 2.6 0.00 0.00 0.00 47 1017.7
20260503194615 64 347 0.0 3.5 0.00 0.00 0.00 49 1017.9
20260503193030 63 82 0.0 5.2 0.00 0.00 0.00 45 1018.2
20260503191514 62 139 0.0 5.2 0.00 0.00 0.00 45 1018.3
20260503190023 63 38 0.0 4.3 0.00 0.00 0.00 46 1018.5
20260503184511 61 305 0.9 3.5 0.00 0.00 0.00 48 1018.7
20260503183008 60 239 0.9 4.3 0.00 0.00 0.00 46 1018.8
20260503181507 61 317 0.0 3.5 0.00 0.00 0.00 46 1018.9
20260503180006 60 112 0.0 2.6 0.00 0.00 0.00 54 1019.0
20260503174505 59 226 0.0 3.5 0.00 0.00 0.00 51 1019.2
20260503173005 59 223 0.0 4.3 0.00 0.00 0.00 56 1019.4
20260503171502 58 221 0.0 1.7 0.00 0.00 0.00 55 1019.6
20260503100126 42 226 0.0 2.6 0.00 0.00 0.00 85 1018.4
20260503081550 43 347 0.9 2.6 0.00 0.00 0.00 84 1017.8
20260503071544 44 282 0.0 1.7 0.00 0.00 0.00 85 1017.4
20260503054535 45 228 0.0 1.7 0.00 0.00 0.00 83 1017.0
20260503053032 45 266 0.0 1.7 0.00 0.00 0.00 82 1017.0
20260503051525 46 354 0.0 2.6 0.00 0.00 0.00 80 1016.9
20260503050024 47 351 0.0 5.2 0.00 0.00 0.00 79 1016.9
20260503044520 47 11 0.0 4.3 0.00 0.00 0.00 77 1016.7
20260503043016 48 14 0.0 1.7 0.00 0.00 0.00 75 1016.7